Time,TemperatureF,DewpointF,PressureIn,WindDirection,WindDirectionDegrees,WindSpeedMPH,WindSpeedGustMPH,Humidity,HourlyPrecipIn,Conditions,Clouds,dailyrainin,SoftwareType,DateUTC
2013-07-16 00:00:00,75.9,71.3,30.03,East,79,0.0,0.0,86,0.00,,,0.00,WSDL version 420,2013-07-16 04:00:00,
2013-07-16 00:05:00,75.9,71.3,30.03,East,90,0.0,0.0,86,0.00,,,0.00,WSDL version 420,2013-07-16 04:05:00,
2013-07-16 00:10:00,75.9,71.3,30.03,East,90,0.0,0.0,86,0.00,,,0.00,WSDL version 420,2013-07-16 04:10:00,
2013-07-16 00:15:00,75.9,71.3,30.03,East,90,0.0,0.0,86,0.00,,,0.00,WSDL version 420,2013-07-16 04:15:00,
2013-07-16 00:20:00,75.9,71.3,30.03,East,90,0.0,0.0,86,0.00,,,0.00,WSDL version 420,2013-07-16 04:20:00,
2013-07-16 00:25:00,75.8,71.2,30.03,East,90,0.0,0.0,86,0.00,,,0.00,WSDL version 420,2013-07-16 04:25:00,
2013-07-16 00:30:00,75.7,71.2,30.00,ESE,113,0.0,0.0,87,0.00,,,0.00,WSDL version 420,2013-07-16 04:30:00,
2013-07-16 00:35:00,75.7,71.5,30.00,ESE,113,0.0,0.0,87,0.00,,,0.00,WSDL version 420,2013-07-16 04:35:00,
2013-07-16 00:40:00,75.7,71.1,30.00,ESE,113,0.0,0.0,87,0.00,,,0.00,WSDL version 420,2013-07-16 04:40:00,
2013-07-16 00:45:00,75.6,71.3,30.00,ESE,113,0.0,0.0,87,0.00,,,0.00,WSDL version 420,2013-07-16 04:45:00,
2013-07-16 00:50:00,75.5,71.2,30.00,ESE,113,0.0,0.0,87,0.00,,,0.00,WSDL version 420,2013-07-16 04:50:00,
2013-07-16 00:55:00,75.4,71.1,30.00,ESE,113,0.0,0.0,87,0.00,,,0.00,WSDL version 420,2013-07-16 04:55:00,
2013-07-16 01:00:00,75.4,71.1,30.00,ESE,113,0.0,0.0,87,0.00,,,0.00,WSDL version 420,2013-07-16 05:00:00,
2013-07-16 01:05:00,75.2,71.0,30.00,ESE,113,0.0,0.0,87,0.00,,,0.00,WSDL version 420,2013-07-16 05:05:00,
2013-07-16 01:10:00,75.2,71.1,30.00,ESE,113,0.0,0.0,88,0.00,,,0.00,WSDL version 420,2013-07-16 05:10:00,
2013-07-16 01:15:00,75.1,71.2,30.00,ESE,113,0.0,0.0,88,0.00,,,0.00,WSDL version 420,2013-07-16 05:15:00,
2013-07-16 01:20:00,75.0,71.2,30.00,NNE,23,0.0,0.0,88,0.00,,,0.00,WSDL version 420,2013-07-16 05:20:00,
2013-07-16 01:25:00,75.0,71.2,30.00,NNE,23,0.0,0.0,88,0.00,,,0.00,WSDL version 420,2013-07-16 05:25:00,
2013-07-16 01:30:00,75.0,71.4,30.00,NNE,23,0.0,0.0,89,0.00,,,0.00,WSDL version 420,2013-07-16 05:30:00,
2013-07-16 01:35:00,75.0,71.5,30.00,NNE,23,0.0,0.0,89,0.00,,,0.00,WSDL version 420,2013-07-16 05:35:00,
2013-07-16 01:40:00,75.0,71.5,30.00,ESE,113,0.0,0.0,89,0.00,,,0.00,WSDL version 420,2013-07-16 05:40:00,
2013-07-16 01:45:00,75.0,71.5,29.97,ESE,113,0.0,0.0,89,0.00,,,0.00,WSDL version 420,2013-07-16 05:45:00,
2013-07-16 01:50:00,75.0,71.5,29.97,ESE,113,0.0,0.0,89,0.00,,,0.00,WSDL version 420,2013-07-16 05:50:00,
2013-07-16 01:55:00,75.0,71.5,29.97,ESE,113,0.0,0.0,89,0.00,,,0.00,WSDL version 420,2013-07-16 05:55:00,
2013-07-16 02:00:00,75.0,71.5,30.00,ESE,113,0.0,0.0,89,0.00,,,0.00,WSDL version 420,2013-07-16 06:00:00,
2013-07-16 02:05:00,75.0,71.5,30.00,ESE,113,0.0,0.0,89,0.00,,,0.00,WSDL version 420,2013-07-16 06:05:00,
2013-07-16 02:10:00,75.0,71.5,30.00,ENE,68,0.0,0.0,89,0.00,,,0.00,WSDL version 420,2013-07-16 06:10:00,
2013-07-16 02:15:00,75.1,71.4,29.97,ENE,68,0.0,0.0,88,0.00,,,0.00,WSDL version 420,2013-07-16 06:15:00,
2013-07-16 02:20:00,75.2,71.3,29.97,ENE,68,0.0,0.0,88,0.00,,,0.00,WSDL version 420,2013-07-16 06:20:00,
2013-07-16 02:25:00,75.2,71.3,29.97,NE,45,0.0,0.0,88,0.00,,,0.00,WSDL version 420,2013-07-16 06:25:00,
2013-07-16 02:30:00,75.2,71.3,29.97,NE,45,0.0,0.0,88,0.00,,,0.00,WSDL version 420,2013-07-16 06:30:00,
2013-07-16 02:35:00,75.2,71.3,29.97,NE,45,0.0,0.0,88,0.00,,,0.00,WSDL version 420,2013-07-16 06:35:00,
2013-07-16 02:40:00,75.4,71.5,29.97,NE,45,0.0,0.0,88,0.00,,,0.00,WSDL version 420,2013-07-16 06:40:00,
2013-07-16 02:45:00,75.4,71.5,30.00,NE,45,0.0,0.0,88,0.00,,,0.00,WSDL version 420,2013-07-16 06:45:00,
2013-07-16 02:50:00,75.4,71.5,30.00,East,90,0.0,0.0,88,0.00,,,0.00,WSDL version 420,2013-07-16 06:50:00,
2013-07-16 02:55:00,75.4,71.3,30.00,ESE,107,0.0,0.0,87,0.00,,,0.00,WSDL version 420,2013-07-16 06:55:00,
2013-07-16 03:00:00,75.5,71.2,29.97,ESE,116,0.0,1.3,87,0.00,,,0.00,WSDL version 420,2013-07-16 07:00:00,
2013-07-16 03:05:00,75.5,71.0,29.97,South,180,0.2,2.9,86,0.00,,,0.00,WSDL version 420,2013-07-16 07:05:00,
2013-07-16 03:10:00,75.4,70.7,29.97,North,360,0.0,2.9,86,0.00,,,0.00,WSDL version 420,2013-07-16 07:10:00,
2013-07-16 03:15:00,75.2,70.6,29.97,North,360,0.0,0.0,86,0.00,,,0.00,WSDL version 420,2013-07-16 07:15:00,
2013-07-16 03:20:00,75.2,70.6,29.97,North,360,0.0,0.0,86,0.00,,,0.00,WSDL version 420,2013-07-16 07:20:00,
2013-07-16 03:25:00,75.0,70.4,29.97,North,360,0.0,0.0,86,0.00,,,0.00,WSDL version 420,2013-07-16 07:25:00,
2013-07-16 03:30:00,75.0,70.4,29.97,North,360,0.0,0.0,86,0.00,,,0.00,WSDL version 420,2013-07-16 07:30:00,
2013-07-16 03:35:00,74.8,70.2,29.97,North,360,0.0,0.0,86,0.00,,,0.00,WSDL version 420,2013-07-16 07:35:00,
2013-07-16 03:40:00,74.7,70.0,29.97,North,360,0.0,0.0,86,0.00,,,0.00,WSDL version 420,2013-07-16 07:40:00,
2013-07-16 03:45:00,74.5,69.9,29.97,North,360,0.0,0.0,86,0.00,,,0.00,WSDL version 420,2013-07-16 07:45:00,
2013-07-16 03:50:00,74.4,69.9,29.97,North,360,0.0,0.0,87,0.00,,,0.00,WSDL version 420,2013-07-16 07:50:00,
2013-07-16 03:55:00,74.3,70.0,29.97,North,360,0.0,0.0,87,0.00,,,0.00,WSDL version 420,2013-07-16 07:55:00,
2013-07-16 04:00:00,74.1,69.9,29.94,NNE,23,0.0,0.0,87,0.00,,,0.00,WSDL version 420,2013-07-16 08:00:00,
2013-07-16 04:05:00,74.0,69.7,29.94,NNE,23,0.0,0.0,87,0.00,,,0.00,WSDL version 420,2013-07-16 08:05:00,
2013-07-16 04:10:00,73.9,69.7,29.94,NNE,23,0.0,0.0,87,0.00,,,0.00,WSDL version 420,2013-07-16 08:10:00,
2013-07-16 04:15:00,74.0,69.8,29.97,NE,45,0.0,0.0,87,0.00,,,0.00,WSDL version 420,2013-07-16 08:15:00,
2013-07-16 04:20:00,74.3,70.1,29.97,NE,45,0.0,0.0,87,0.00,,,0.00,WSDL version 420,2013-07-16 08:20:00,
2013-07-16 04:25:00,74.6,70.7,29.97,NNE,30,0.6,0.0,88,0.00,,,0.00,WSDL version 420,2013-07-16 08:25:00,
2013-07-16 04:30:00,74.8,70.9,29.97,ENE,71,0.8,2.5,88,0.00,,,0.00,WSDL version 420,2013-07-16 08:30:00,
2013-07-16 04:35:00,75.0,71.0,29.97,SE,129,0.0,2.5,87,0.00,,,0.00,WSDL version 420,2013-07-16 08:35:00,
2013-07-16 04:40:00,75.3,71.1,29.97,East,96,1.0,2.9,87,0.00,,,0.00,WSDL version 420,2013-07-16 08:40:00,
2013-07-16 04:45:00,75.6,71.2,29.97,SE,138,3.4,5.6,86,0.00,,,0.00,WSDL version 420,2013-07-16 08:45:00,
2013-07-16 04:50:00,75.5,68.6,29.97,East,93,3.9,9.6,78,0.00,,,0.00,WSDL version 420,2013-07-16 08:50:00,
2013-07-16 04:55:00,75.0,67.3,29.97,SE,135,2.4,9.6,77,0.00,,,0.00,WSDL version 420,2013-07-16 08:55:00,
2013-07-16 05:00:00,74.7,67.3,29.97,SSE,166,0.4,6.0,78,0.00,,,0.00,WSDL version 420,2013-07-16 09:00:00,
2013-07-16 05:05:00,74.4,67.4,29.97,East,90,0.8,5.6,79,0.00,,,0.00,WSDL version 420,2013-07-16 09:05:00,
2013-07-16 05:10:00,74.2,67.3,29.97,ENE,58,1.1,3.4,79,0.00,,,0.00,WSDL version 420,2013-07-16 09:10:00,
2013-07-16 05:15:00,73.9,67.1,29.97,East,93,0.0,2.7,80,0.00,,,0.00,WSDL version 420,2013-07-16 09:15:00,
2013-07-16 05:20:00,73.8,67.3,29.97,SSE,164,0.0,2.7,80,0.00,,,0.00,WSDL version 420,2013-07-16 09:20:00,
2013-07-16 05:25:00,73.7,67.2,29.97,SSE,154,0.0,2.5,81,0.00,,,0.00,WSDL version 420,2013-07-16 09:25:00,
2013-07-16 05:30:00,73.6,67.4,29.97,ENE,68,0.0,0.0,81,0.00,,,0.00,WSDL version 420,2013-07-16 09:30:00,
2013-07-16 05:35:00,73.5,67.4,29.97,East,100,0.0,0.0,81,0.00,,,0.00,WSDL version 420,2013-07-16 09:35:00,
2013-07-16 05:40:00,73.4,67.3,29.97,SSE,154,0.0,0.0,81,0.00,,,0.00,WSDL version 420,2013-07-16 09:40:00,
2013-07-16 05:45:00,73.4,67.7,29.97,NE,51,0.0,0.0,82,0.00,,,0.00,WSDL version 420,2013-07-16 09:45:00,
2013-07-16 05:50:00,73.4,67.8,29.97,NNE,32,0.0,0.0,83,0.00,,,0.00,WSDL version 420,2013-07-16 09:50:00,
2013-07-16 05:55:00,73.2,67.9,29.97,East,90,0.0,0.0,83,0.00,,,0.00,WSDL version 420,2013-07-16 09:55:00,
2013-07-16 06:00:00,73.2,68.3,29.97,East,90,0.0,0.0,84,0.00,,,0.00,WSDL version 420,2013-07-16 10:00:00,
2013-07-16 06:05:00,73.2,68.3,29.97,ENE,68,0.0,0.0,84,0.00,,,0.00,WSDL version 420,2013-07-16 10:05:00,
2013-07-16 06:10:00,73.2,68.5,29.97,ENE,68,0.0,0.0,86,0.00,,,0.00,WSDL version 420,2013-07-16 10:10:00,
2013-07-16 06:15:00,73.2,68.6,29.94,ENE,68,0.0,0.0,86,0.00,,,0.00,WSDL version 420,2013-07-16 10:15:00,
2013-07-16 06:20:00,73.2,68.6,29.94,East,84,0.0,0.9,86,0.00,,,0.00,WSDL version 420,2013-07-16 10:20:00,
2013-07-16 06:25:00,73.2,68.7,29.94,NNW,338,0.0,0.9,87,0.00,,,0.00,WSDL version 420,2013-07-16 10:25:00,
2013-07-16 06:30:00,73.2,69.0,29.97,NNE,13,0.0,0.0,87,0.00,,,0.00,WSDL version 420,2013-07-16 10:30:00,
2013-07-16 06:35:00,73.2,69.0,29.97,NE,45,0.0,0.0,87,0.00,,,0.00,WSDL version 420,2013-07-16 10:35:00,
2013-07-16 06:40:00,73.4,69.2,29.97,NE,45,0.0,0.0,87,0.00,,,0.00,WSDL version 420,2013-07-16 10:40:00,
2013-07-16 06:45:00,73.5,69.5,29.97,NE,34,0.0,0.0,88,0.00,,,0.00,WSDL version 420,2013-07-16 10:45:00,
2013-07-16 06:50:00,73.6,69.8,29.97,NNE,31,0.0,0.0,88,0.00,,,0.00,WSDL version 420,2013-07-16 10:50:00,
2013-07-16 06:55:00,73.8,69.9,29.97,NE,55,0.0,0.0,88,0.00,,,0.00,WSDL version 420,2013-07-16 10:55:00,
2013-07-16 07:00:00,73.9,70.0,29.97,NE,45,0.0,0.0,88,0.00,,,0.00,WSDL version 420,2013-07-16 11:00:00,
2013-07-16 07:05:00,74.0,70.2,29.97,NE,45,0.0,0.0,88,0.00,,,0.00,WSDL version 420,2013-07-16 11:05:00,
2013-07-16 07:10:00,74.3,70.4,29.97,NE,45,0.0,0.0,88,0.00,,,0.00,WSDL version 420,2013-07-16 11:10:00,
2013-07-16 07:15:00,74.6,70.9,30.00,North,360,0.0,0.0,89,0.00,,,0.00,WSDL version 420,2013-07-16 11:15:00,
2013-07-16 07:20:00,74.8,71.3,30.00,North,360,0.0,0.0,89,0.00,,,0.00,WSDL version 420,2013-07-16 11:20:00,
2013-07-16 07:25:00,75.0,71.3,30.00,NNE,20,0.0,0.0,88,0.00,,,0.00,WSDL version 420,2013-07-16 11:25:00,
2013-07-16 07:30:00,75.2,71.3,30.00,NNE,23,0.0,0.0,88,0.00,,,0.00,WSDL version 420,2013-07-16 11:30:00,
2013-07-16 07:35:00,75.6,71.7,30.00,SSE,150,1.0,2.5,88,0.04,,,0.04,WSDL version 420,2013-07-16 11:35:00,
2013-07-16 07:40:00,76.6,72.9,30.00,NE,55,1.7,3.4,89,0.04,,,0.04,WSDL version 420,2013-07-16 11:40:00,
2013-07-16 07:45:00,77.2,73.3,30.00,ENE,68,0.8,3.4,88,0.04,,,0.04,WSDL version 420,2013-07-16 11:45:00,
2013-07-16 07:50:00,77.6,73.5,30.00,ENE,73,1.2,3.1,87,0.04,,,0.04,WSDL version 420,2013-07-16 11:50:00,
2013-07-16 07:55:00,78.1,73.8,30.00,NNE,29,0.4,3.1,87,0.04,,,0.04,WSDL version 420,2013-07-16 11:55:00,
2013-07-16 08:00:00,78.6,73.9,30.00,NE,55,1.3,4.3,83,0.04,,,0.04,WSDL version 420,2013-07-16 12:00:00,
2013-07-16 08:05:00,79.4,73.8,30.00,ENE,63,0.4,4.3,82,0.04,,,0.04,WSDL version 420,2013-07-16 12:05:00,
2013-07-16 08:10:00,79.9,73.0,30.00,ENE,68,2.5,4.7,77,0.04,,,0.04,WSDL version 420,2013-07-16 12:10:00,
2013-07-16 08:15:00,81.4,71.9,30.00,East,80,2.8,4.7,71,0.04,,,0.04,WSDL version 420,2013-07-16 12:15:00,
2013-07-16 08:20:00,82.9,72.6,30.00,ENE,64,1.3,4.7,71,0.04,,,0.04,WSDL version 420,2013-07-16 12:20:00,
2013-07-16 08:25:00,84.4,71.9,30.00,ENE,70,2.8,4.3,64,0.04,,,0.04,WSDL version 420,2013-07-16 12:25:00,
2013-07-16 08:30:00,86.1,72.0,30.03,East,86,2.6,4.3,62,0.04,,,0.04,WSDL version 420,2013-07-16 12:30:00,
2013-07-16 08:35:00,86.8,71.1,30.03,ENE,65,2.7,6.5,57,0.00,,,0.04,WSDL version 420,2013-07-16 12:35:00,
2013-07-16 08:40:00,87.1,68.8,30.03,ENE,64,4.9,6.5,54,0.00,,,0.04,WSDL version 420,2013-07-16 12:40:00,
2013-07-16 08:45:00,87.2,68.4,30.03,East,86,3.8,7.6,53,0.00,,,0.04,WSDL version 420,2013-07-16 12:45:00,
2013-07-16 08:50:00,87.4,67.6,30.03,ENE,71,5.7,8.5,52,0.00,,,0.04,WSDL version 420,2013-07-16 12:50:00,
2013-07-16 08:55:00,87.8,67.7,30.03,SE,128,3.8,8.5,51,0.00,,,0.04,WSDL version 420,2013-07-16 12:55:00,
2013-07-16 09:00:00,87.4,67.3,30.03,North,354,3.7,8.7,52,0.00,,,0.04,WSDL version 420,2013-07-16 13:00:00,
2013-07-16 09:05:00,88.4,69.3,30.03,ENE,61,2.6,8.7,53,0.00,,,0.04,WSDL version 420,2013-07-16 13:05:00,
2013-07-16 09:10:00,87.8,68.4,30.03,NE,51,4.1,6.3,52,0.00,,,0.04,WSDL version 420,2013-07-16 13:10:00,
2013-07-16 09:15:00,87.6,67.2,30.03,NE,56,5.8,9.2,52,0.00,,,0.04,WSDL version 420,2013-07-16 13:15:00,
2013-07-16 09:20:00,86.6,67.3,30.03,ENE,71,4.9,9.6,53,0.00,,,0.04,WSDL version 420,2013-07-16 13:20:00,
2013-07-16 09:25:00,86.8,68.0,30.03,ENE,59,3.9,9.6,55,0.00,,,0.04,WSDL version 420,2013-07-16 13:25:00,
2013-07-16 09:30:00,88.1,68.9,30.03,ENE,60,4.8,9.4,53,0.00,,,0.04,WSDL version 420,2013-07-16 13:30:00,
2013-07-16 09:35:00,87.7,68.6,30.03,North,4,4.7,7.6,53,0.00,,,0.04,WSDL version 420,2013-07-16 13:35:00,
2013-07-16 09:40:00,87.3,68.4,30.03,ENE,75,6.2,8.1,54,0.00,,,0.04,WSDL version 420,2013-07-16 13:40:00,
2013-07-16 09:45:00,86.4,68.0,30.03,East,87,5.4,8.5,55,0.00,,,0.04,WSDL version 420,2013-07-16 13:45:00,
2013-07-16 09:50:00,86.5,69.1,30.03,East,93,4.3,8.5,57,0.00,,,0.04,WSDL version 420,2013-07-16 13:50:00,
2013-07-16 09:55:00,83.3,64.4,30.03,NE,35,4.4,7.8,54,0.00,,,0.04,WSDL version 420,2013-07-16 13:55:00,
2013-07-16 10:00:00,80.7,63.6,30.03,SSW,212,4.4,11.0,58,0.00,,,0.04,WSDL version 420,2013-07-16 14:00:00,
2013-07-16 10:05:00,79.2,64.3,30.03,SE,141,4.0,11.0,62,0.00,,,0.04,WSDL version 420,2013-07-16 14:05:00,
2013-07-16 10:10:00,77.8,65.0,30.03,South,180,3.6,7.4,66,0.04,,,0.08,WSDL version 420,2013-07-16 14:10:00,
2013-07-16 10:15:00,77.4,65.9,30.03,SSW,212,1.9,6.9,69,0.04,,,0.08,WSDL version 420,2013-07-16 14:15:00,
2013-07-16 10:20:00,77.1,66.6,30.03,ENE,68,1.8,4.9,71,0.04,,,0.08,WSDL version 420,2013-07-16 14:20:00,
2013-07-16 10:25:00,76.5,66.9,30.03,SSW,210,2.2,4.0,73,0.04,,,0.08,WSDL version 420,2013-07-16 14:25:00,
2013-07-16 10:30:00,76.1,67.2,30.06,ESE,113,1.1,3.4,74,0.12,,,0.16,WSDL version 420,2013-07-16 14:30:00,
2013-07-16 10:35:00,75.8,67.2,30.06,SSW,203,1.8,3.4,75,0.12,,,0.16,WSDL version 420,2013-07-16 14:35:00,
2013-07-16 10:40:00,75.6,67.3,30.06,South,169,0.4,2.5,76,0.16,,,0.20,WSDL version 420,2013-07-16 14:40:00,
2013-07-16 10:45:00,75.7,67.8,30.03,South,180,0.5,2.5,77,0.16,,,0.20,WSDL version 420,2013-07-16 14:45:00,
2013-07-16 10:50:00,75.9,68.5,30.03,South,180,0.0,1.3,78,0.16,,,0.20,WSDL version 420,2013-07-16 14:50:00,
2013-07-16 10:55:00,76.1,68.7,30.03,SE,135,0.4,2.2,78,0.16,,,0.20,WSDL version 420,2013-07-16 14:55:00,
2013-07-16 11:00:00,76.1,68.7,30.03,North,360,0.0,2.2,78,0.16,,,0.20,WSDL version 420,2013-07-16 15:00:00,
2013-07-16 11:05:00,75.8,68.4,30.03,ENE,72,1.6,4.3,78,0.16,,,0.20,WSDL version 420,2013-07-16 15:05:00,
2013-07-16 11:10:00,75.5,68.3,30.03,NNE,14,1.2,4.3,79,0.12,,,0.20,WSDL version 420,2013-07-16 15:10:00,
2013-07-16 11:15:00,75.4,68.4,30.06,SSE,148,1.7,3.1,79,0.12,,,0.20,WSDL version 420,2013-07-16 15:15:00,
2013-07-16 11:20:00,75.6,68.6,30.06,SSE,158,2.1,5.6,79,0.12,,,0.20,WSDL version 420,2013-07-16 15:20:00,
2013-07-16 11:25:00,75.6,68.6,30.06,South,171,2.6,5.6,79,0.12,,,0.20,WSDL version 420,2013-07-16 15:25:00,
2013-07-16 11:30:00,75.7,69.0,30.03,WNW,293,2.8,7.4,80,0.04,,,0.20,WSDL version 420,2013-07-16 15:30:00,
2013-07-16 11:35:00,75.9,69.0,30.03,SSE,154,3.1,7.4,79,0.04,,,0.20,WSDL version 420,2013-07-16 15:35:00,
2013-07-16 11:40:00,76.0,68.9,30.03,NE,53,1.6,6.0,78,0.00,,,0.20,WSDL version 420,2013-07-16 15:40:00,
2013-07-16 11:45:00,75.8,68.5,30.06,SSE,161,3.2,7.6,78,0.00,,,0.20,WSDL version 420,2013-07-16 15:45:00,
2013-07-16 11:50:00,75.8,68.5,30.06,ENE,75,2.9,7.6,78,0.00,,,0.20,WSDL version 420,2013-07-16 15:50:00,
2013-07-16 11:55:00,75.9,68.8,30.06,ESE,108,2.6,6.5,79,0.00,,,0.20,WSDL version 420,2013-07-16 15:55:00,
2013-07-16 12:00:00,75.9,68.9,30.09,East,93,3.1,6.5,79,0.00,,,0.20,WSDL version 420,2013-07-16 16:00:00,
2013-07-16 12:05:00,75.4,68.5,30.09,WSW,253,3.0,7.8,79,0.00,,,0.20,WSDL version 420,2013-07-16 16:05:00,
2013-07-16 12:10:00,74.8,67.9,30.09,NNE,23,4.0,8.1,79,0.05,,,0.25,WSDL version 420,2013-07-16 16:10:00,
2013-07-16 12:15:00,74.4,67.4,30.09,East,84,4.1,8.1,79,0.05,,,0.25,WSDL version 420,2013-07-16 16:15:00,
2013-07-16 12:20:00,74.0,67.5,30.09,South,176,2.3,5.8,80,0.05,,,0.25,WSDL version 420,2013-07-16 16:20:00,
2013-07-16 12:25:00,73.9,67.6,30.09,ESE,116,3.3,6.0,81,0.05,,,0.25,WSDL version 420,2013-07-16 16:25:00,
2013-07-16 12:30:00,73.8,67.7,30.09,ESE,116,2.1,6.0,82,0.08,,,0.28,WSDL version 420,2013-07-16 16:30:00,
2013-07-16 12:35:00,73.9,68.1,30.09,ENE,71,1.5,4.9,82,0.08,,,0.28,WSDL version 420,2013-07-16 16:35:00,
2013-07-16 12:40:00,73.9,68.6,30.09,SE,135,1.7,4.9,83,0.08,,,0.28,WSDL version 420,2013-07-16 16:40:00,
2013-07-16 12:45:00,74.1,68.8,30.06,SSE,155,1.2,4.0,84,0.08,,,0.28,WSDL version 420,2013-07-16 16:45:00,
2013-07-16 12:50:00,74.2,69.2,30.06,SW,219,0.0,3.1,84,0.08,,,0.28,WSDL version 420,2013-07-16 16:50:00,
2013-07-16 12:55:00,74.3,69.3,30.06,North,360,1.1,3.1,84,0.08,,,0.28,WSDL version 420,2013-07-16 16:55:00,
2013-07-16 13:00:00,74.5,69.5,30.06,SE,131,0.5,3.4,84,0.08,,,0.28,WSDL version 420,2013-07-16 17:00:00,
2013-07-16 13:05:00,74.7,69.8,30.06,SSW,198,0.7,3.4,86,0.13,,,0.33,WSDL version 420,2013-07-16 17:05:00,
2013-07-16 13:10:00,74.9,70.3,30.06,East,99,0.7,3.6,86,0.08,,,0.33,WSDL version 420,2013-07-16 17:10:00,
2013-07-16 13:15:00,75.6,70.9,30.06,East,84,0.6,3.6,86,0.08,,,0.33,WSDL version 420,2013-07-16 17:15:00,
2013-07-16 13:20:00,76.1,71.5,30.06,ESE,118,1.6,2.5,86,0.08,,,0.33,WSDL version 420,2013-07-16 17:20:00,
2013-07-16 13:25:00,76.9,72.3,30.06,South,169,1.0,2.5,86,0.08,,,0.33,WSDL version 420,2013-07-16 17:25:00,
2013-07-16 13:30:00,78.0,73.4,30.06,ESE,119,2.0,3.4,86,0.05,,,0.33,WSDL version 420,2013-07-16 17:30:00,
2013-07-16 13:35:00,78.7,73.4,30.06,East,80,1.5,3.6,82,0.05,,,0.33,WSDL version 420,2013-07-16 17:35:00,
2013-07-16 13:40:00,79.5,73.2,30.06,NW,326,1.6,4.7,80,0.05,,,0.33,WSDL version 420,2013-07-16 17:40:00,
2013-07-16 13:45:00,79.8,72.6,30.03,NW,323,0.9,4.9,78,0.05,,,0.33,WSDL version 420,2013-07-16 17:45:00,
2013-07-16 13:50:00,80.1,72.4,30.03,SE,127,1.5,4.9,77,0.05,,,0.33,WSDL version 420,2013-07-16 17:50:00,
2013-07-16 13:55:00,80.1,71.9,30.03,SE,135,0.3,4.0,76,0.05,,,0.33,WSDL version 420,2013-07-16 17:55:00,
2013-07-16 14:00:00,80.3,71.8,30.03,SE,132,1.4,4.0,75,0.05,,,0.33,WSDL version 420,2013-07-16 18:00:00,
2013-07-16 14:05:00,80.6,71.1,30.03,NE,53,0.6,2.9,73,0.00,,,0.33,WSDL version 420,2013-07-16 18:05:00,
2013-07-16 14:10:00,81.2,71.7,30.03,NE,38,0.0,2.7,73,0.00,,,0.33,WSDL version 420,2013-07-16 18:10:00,
2013-07-16 14:15:00,81.5,71.3,30.03,SE,141,0.7,2.9,71,0.00,,,0.33,WSDL version 420,2013-07-16 18:15:00,
2013-07-16 14:20:00,81.8,71.0,30.03,SSW,194,1.0,3.8,70,0.00,,,0.33,WSDL version 420,2013-07-16 18:20:00,
2013-07-16 14:25:00,82.0,70.0,30.03,East,83,2.3,5.6,65,0.00,,,0.33,WSDL version 420,2013-07-16 18:25:00,
2013-07-16 14:30:00,82.2,69.5,30.03,East,90,1.2,5.6,66,0.00,,,0.33,WSDL version 420,2013-07-16 18:30:00,
2013-07-16 14:35:00,82.6,69.7,30.03,East,93,2.1,4.3,65,0.00,,,0.33,WSDL version 420,2013-07-16 18:35:00,
2013-07-16 14:40:00,82.8,69.3,30.03,South,186,1.8,4.3,64,0.00,,,0.33,WSDL version 420,2013-07-16 18:40:00,
2013-07-16 14:45:00,83.1,68.6,30.03,ENE,58,3.6,6.0,59,0.00,,,0.33,WSDL version 420,2013-07-16 18:45:00,
2013-07-16 14:50:00,83.4,67.9,30.03,ENE,59,1.8,6.0,60,0.00,,,0.33,WSDL version 420,2013-07-16 18:50:00,
2013-07-16 14:55:00,84.0,68.0,30.03,SSE,153,2.5,4.3,59,0.00,,,0.33,WSDL version 420,2013-07-16 18:55:00,
2013-07-16 15:00:00,85.5,69.9,30.03,ENE,71,1.6,4.3,60,0.00,,,0.33,WSDL version 420,2013-07-16 19:00:00,
2013-07-16 15:05:00,86.1,69.6,30.03,NW,319,2.6,4.7,57,0.00,,,0.33,WSDL version 420,2013-07-16 19:05:00,
2013-07-16 15:10:00,86.6,69.1,30.03,ENE,65,2.0,4.9,54,0.00,,,0.33,WSDL version 420,2013-07-16 19:10:00,
2013-07-16 15:15:00,86.7,68.4,30.03,East,99,2.8,4.9,54,0.00,,,0.33,WSDL version 420,2013-07-16 19:15:00,
2013-07-16 15:20:00,86.5,67.1,30.03,South,173,2.1,6.5,53,0.00,,,0.33,WSDL version 420,2013-07-16 19:20:00,
2013-07-16 15:25:00,86.6,68.4,30.03,SSE,158,1.5,6.5,55,0.00,,,0.33,WSDL version 420,2013-07-16 19:25:00,
2013-07-16 15:30:00,86.3,66.7,30.03,ENE,64,3.4,6.5,50,0.00,,,0.33,WSDL version 420,2013-07-16 19:30:00,
2013-07-16 15:35:00,86.2,67.3,30.03,ESE,119,0.5,6.5,54,0.00,,,0.33,WSDL version 420,2013-07-16 19:35:00,
2013-07-16 15:40:00,86.8,68.7,30.03,SSW,203,0.6,4.9,55,0.00,,,0.33,WSDL version 420,2013-07-16 19:40:00,
2013-07-16 15:45:00,86.4,66.0,30.00,ENE,61,4.1,6.5,50,0.00,,,0.33,WSDL version 420,2013-07-16 19:45:00,
2013-07-16 15:50:00,86.4,66.7,30.00,West,260,1.7,6.5,53,0.00,,,0.33,WSDL version 420,2013-07-16 19:50:00,
2013-07-16 15:55:00,86.2,66.5,30.00,East,99,2.9,5.4,52,0.00,,,0.33,WSDL version 420,2013-07-16 19:55:00,
2013-07-16 16:00:00,86.0,66.7,30.00,ESE,116,3.1,6.0,53,0.00,,,0.33,WSDL version 420,2013-07-16 20:00:00,
2013-07-16 16:05:00,85.2,65.3,30.00,ENE,71,3.8,6.5,51,0.00,,,0.33,WSDL version 420,2013-07-16 20:05:00,
2013-07-16 16:10:00,85.2,65.9,30.00,East,96,2.7,6.5,53,0.00,,,0.33,WSDL version 420,2013-07-16 20:10:00,
2013-07-16 16:20:00,85.8,66.9,30.03,ENE,68,3.8,7.2,53,0.00,,,0.33,WSDL version 420,2013-07-16 20:20:00,
2013-07-16 16:25:00,85.9,67.2,30.03,East,93,3.4,6.3,54,0.00,,,0.33,WSDL version 420,2013-07-16 20:25:00,
2013-07-16 16:30:00,86.0,67.4,30.00,ENE,58,3.5,8.7,53,0.00,,,0.33,WSDL version 420,2013-07-16 20:30:00,
2013-07-16 16:35:00,85.3,66.8,30.00,ENE,68,4.3,8.7,54,0.00,,,0.33,WSDL version 420,2013-07-16 20:35:00,
2013-07-16 16:40:00,85.6,67.9,30.00,East,90,2.7,5.8,56,0.00,,,0.33,WSDL version 420,2013-07-16 20:40:00,
2013-07-16 16:45:00,85.8,68.3,30.00,ENE,75,2.6,6.5,56,0.00,,,0.33,WSDL version 420,2013-07-16 20:45:00,
2013-07-16 16:50:00,85.2,66.8,30.00,ENE,68,5.4,8.1,54,0.00,,,0.33,WSDL version 420,2013-07-16 20:50:00,
2013-07-16 16:55:00,85.0,67.2,30.00,ENE,74,2.5,8.1,56,0.00,,,0.33,WSDL version 420,2013-07-16 20:55:00,
2013-07-16 17:00:00,85.3,68.2,30.00,NE,56,1.3,6.9,58,0.00,,,0.33,WSDL version 420,2013-07-16 21:00:00,
2013-07-16 17:05:00,85.5,68.3,30.00,ENE,74,3.3,5.8,56,0.00,,,0.33,WSDL version 420,2013-07-16 21:05:00,
2013-07-16 17:10:00,85.6,68.7,30.00,NE,53,2.5,5.8,57,0.00,,,0.33,WSDL version 420,2013-07-16 21:10:00,
2013-07-16 17:20:00,85.5,68.4,30.00,ENE,71,1.3,5.4,57,0.00,,,0.33,WSDL version 420,2013-07-16 21:20:00,
2013-07-16 17:25:00,85.4,68.1,30.00,NE,45,3.1,4.0,55,0.00,,,0.33,WSDL version 420,2013-07-16 21:25:00,
2013-07-16 17:30:00,85.1,67.6,29.97,East,82,1.9,3.8,56,0.00,,,0.33,WSDL version 420,2013-07-16 21:30:00,
2013-07-16 17:35:00,84.9,67.8,29.97,NNE,30,3.0,4.0,56,0.00,,,0.33,WSDL version 420,2013-07-16 21:35:00,
2013-07-16 17:45:00,84.4,67.6,29.97,ENE,74,2.6,4.3,57,0.00,,,0.33,WSDL version 420,2013-07-16 21:45:00,
2013-07-16 17:50:00,84.1,67.7,29.97,ENE,70,1.4,4.3,58,0.00,,,0.33,WSDL version 420,2013-07-16 21:50:00,
2013-07-16 17:55:00,83.8,67.6,29.97,East,101,3.2,4.3,59,0.00,,,0.33,WSDL version 420,2013-07-16 21:55:00,
2013-07-16 18:00:00,83.8,68.1,30.00,ENE,71,3.1,4.9,59,0.00,,,0.33,WSDL version 420,2013-07-16 22:00:00,
2013-07-16 18:05:00,83.3,67.9,30.00,ENE,62,2.8,4.9,60,0.00,,,0.33,WSDL version 420,2013-07-16 22:05:00,
2013-07-16 18:10:00,83.2,67.9,30.00,ENE,77,2.5,4.3,60,0.00,,,0.33,WSDL version 420,2013-07-16 22:10:00,
2013-07-16 18:15:00,83.0,67.8,29.97,NE,48,2.9,4.9,61,0.00,,,0.33,WSDL version 420,2013-07-16 22:15:00,
2013-07-16 18:20:00,82.9,67.9,29.97,NE,56,3.8,6.5,61,0.00,,,0.33,WSDL version 420,2013-07-16 22:20:00,
2013-07-16 18:25:00,82.9,68.0,29.97,ENE,75,1.1,6.5,61,0.00,,,0.33,WSDL version 420,2013-07-16 22:25:00,
2013-07-16 18:30:00,83.1,68.4,30.00,ENE,68,3.4,6.5,61,0.00,,,0.33,WSDL version 420,2013-07-16 22:30:00,
2013-07-16 18:35:00,83.3,68.5,30.00,ENE,77,4.0,5.8,61,0.00,,,0.33,WSDL version 420,2013-07-16 22:35:00,
2013-07-16 18:40:00,82.9,68.0,30.00,NE,56,3.0,5.4,61,0.00,,,0.33,WSDL version 420,2013-07-16 22:40:00,
2013-07-16 18:45:00,82.6,67.8,30.03,ENE,68,3.1,4.7,61,0.00,,,0.33,WSDL version 420,2013-07-16 22:45:00,
2013-07-16 18:50:00,82.4,67.7,30.03,NE,56,3.6,5.4,61,0.00,,,0.33,WSDL version 420,2013-07-16 22:50:00,
2013-07-16 18:55:00,82.4,68.0,30.03,ENE,58,2.5,5.4,62,0.00,,,0.33,WSDL version 420,2013-07-16 22:55:00,
2013-07-16 19:00:00,82.2,68.3,30.00,NE,37,2.4,4.7,63,0.00,,,0.33,WSDL version 420,2013-07-16 23:00:00,
2013-07-16 19:05:00,82.2,68.7,30.00,NE,45,1.1,4.3,64,0.00,,,0.33,WSDL version 420,2013-07-16 23:05:00,
2013-07-16 19:10:00,82.0,68.6,30.00,NE,48,2.2,4.0,63,0.00,,,0.33,WSDL version 420,2013-07-16 23:10:00,
2013-07-16 19:15:00,81.7,68.2,30.00,ENE,72,4.4,6.0,64,0.00,,,0.33,WSDL version 420,2013-07-16 23:15:00,
2013-07-16 19:20:00,81.2,68.3,30.00,ENE,68,0.9,6.9,65,0.00,,,0.33,WSDL version 420,2013-07-16 23:20:00,
2013-07-16 19:25:00,80.7,68.3,30.00,North,353,0.3,6.9,66,0.00,,,0.33,WSDL version 420,2013-07-16 23:25:00,
2013-07-16 19:30:00,80.6,68.6,30.00,NE,48,1.3,6.5,67,0.00,,,0.33,WSDL version 420,2013-07-16 23:30:00,
2013-07-16 19:35:00,80.4,68.9,30.00,NE,36,2.3,3.8,68,0.00,,,0.33,WSDL version 420,2013-07-16 23:35:00,
2013-07-16 19:40:00,80.5,69.2,30.00,NNE,23,1.5,3.8,68,0.00,,,0.33,WSDL version 420,2013-07-16 23:40:00,
2013-07-16 19:45:00,80.6,69.1,30.03,ENE,68,1.0,3.1,68,0.00,,,0.33,WSDL version 420,2013-07-16 23:45:00,
2013-07-16 19:50:00,80.6,69.1,30.03,NNE,28,1.6,4.3,68,0.00,,,0.33,WSDL version 420,2013-07-16 23:50:00,
2013-07-16 19:55:00,80.5,69.2,30.03,East,87,2.9,4.3,69,0.00,,,0.33,WSDL version 420,2013-07-16 23:55:00,
2013-07-16 20:00:00,80.4,69.4,30.06,SE,125,1.8,4.3,70,0.00,,,0.33,WSDL version 420,2013-07-17 00:00:00,
2013-07-16 20:05:00,80.0,69.3,30.06,SSW,199,2.9,6.3,70,0.00,,,0.33,WSDL version 420,2013-07-17 00:05:00,
2013-07-16 20:10:00,79.1,68.9,30.06,South,174,1.9,6.5,71,0.00,,,0.33,WSDL version 420,2013-07-17 00:10:00,
2013-07-16 20:15:00,78.3,68.3,30.03,South,174,0.0,6.5,72,0.00,,,0.33,WSDL version 420,2013-07-17 00:15:00,
2013-07-16 20:25:00,77.7,68.6,30.03,South,180,0.0,2.9,74,0.00,,,0.33,WSDL version 420,2013-07-17 00:25:00,
2013-07-16 20:30:00,77.4,68.5,30.03,South,180,0.0,1.3,74,0.00,,,0.33,WSDL version 420,2013-07-17 00:30:00,
2013-07-16 20:35:00,77.2,68.6,30.03,South,180,0.0,0.0,75,0.00,,,0.33,WSDL version 420,2013-07-17 00:35:00,
2013-07-16 20:40:00,76.9,68.6,30.03,South,180,0.0,0.0,76,0.00,,,0.33,WSDL version 420,2013-07-17 00:40:00,
2013-07-16 20:45:00,76.8,68.6,30.03,West,263,0.0,0.0,76,0.00,,,0.33,WSDL version 420,2013-07-17 00:45:00,
2013-07-16 20:50:00,76.6,68.8,30.03,NW,318,0.0,2.0,77,0.00,,,0.33,WSDL version 420,2013-07-17 00:50:00,
2013-07-16 20:55:00,76.6,68.9,30.03,North,360,0.0,2.0,77,0.00,,,0.33,WSDL version 420,2013-07-17 00:55:00,
2013-07-16 21:00:00,76.6,68.9,30.03,NNW,334,0.0,0.0,78,0.00,,,0.33,WSDL version 420,2013-07-17 01:00:00,
2013-07-16 21:05:00,76.5,69.1,30.03,NNW,334,0.0,0.0,78,0.00,,,0.33,WSDL version 420,2013-07-17 01:05:00,
2013-07-16 21:10:00,76.5,69.1,30.03,NNW,338,0.0,0.0,78,0.00,,,0.33,WSDL version 420,2013-07-17 01:10:00,
2013-07-16 21:15:00,76.5,69.4,30.03,NNW,338,0.0,0.0,79,0.00,,,0.33,WSDL version 420,2013-07-17 01:15:00,
2013-07-16 21:20:00,76.5,69.5,30.03,NNW,338,0.0,0.0,79,0.00,,,0.33,WSDL version 420,2013-07-17 01:20:00,
2013-07-16 21:25:00,76.4,69.4,30.03,NE,45,0.0,0.0,79,0.00,,,0.33,WSDL version 420,2013-07-17 01:25:00,
2013-07-16 21:30:00,76.3,69.3,30.06,NNE,23,0.0,0.0,79,0.00,,,0.33,WSDL version 420,2013-07-17 01:30:00,
2013-07-16 21:35:00,76.3,69.3,30.06,NE,35,0.0,0.0,79,0.00,,,0.33,WSDL version 420,2013-07-17 01:35:00,
2013-07-16 21:40:00,76.3,69.6,30.06,NE,45,0.0,0.0,80,0.00,,,0.33,WSDL version 420,2013-07-17 01:40:00,
2013-07-16 21:45:00,76.3,69.7,30.00,NE,45,0.3,0.0,80,0.00,,,0.33,WSDL version 420,2013-07-17 01:45:00,
2013-07-16 21:50:00,76.3,69.7,30.00,NE,45,0.0,0.0,80,0.00,,,0.33,WSDL version 420,2013-07-17 01:50:00,
2013-07-16 21:55:00,76.3,69.8,30.00,NE,45,0.0,0.0,81,0.00,,,0.33,WSDL version 420,2013-07-17 01:55:00,
2013-07-16 22:00:00,76.3,70.1,30.03,NE,45,0.0,0.0,81,0.00,,,0.33,WSDL version 420,2013-07-17 02:00:00,
2013-07-16 22:05:00,76.5,70.2,30.03,NE,45,0.0,0.0,81,0.00,,,0.33,WSDL version 420,2013-07-17 02:05:00,
2013-07-16 22:10:00,76.5,70.6,30.03,NE,45,0.0,0.0,82,0.00,,,0.33,WSDL version 420,2013-07-17 02:10:00,
2013-07-16 22:15:00,76.5,70.7,30.03,NE,45,0.0,0.0,82,0.00,,,0.33,WSDL version 420,2013-07-17 02:15:00,
2013-07-16 22:20:00,76.6,70.8,30.03,NE,45,0.0,0.0,82,0.00,,,0.33,WSDL version 420,2013-07-17 02:20:00,
2013-07-16 22:25:00,76.6,71.2,30.03,NE,55,0.0,0.0,83,0.00,,,0.33,WSDL version 420,2013-07-17 02:25:00,
2013-07-16 22:30:00,76.7,71.3,30.03,ENE,68,0.0,0.0,83,0.00,,,0.33,WSDL version 420,2013-07-17 02:30:00,
2013-07-16 22:35:00,76.6,71.2,30.03,ENE,68,0.0,0.0,83,0.00,,,0.33,WSDL version 420,2013-07-17 02:35:00,
2013-07-16 22:40:00,76.8,71.4,30.03,East,90,0.0,0.0,83,0.00,,,0.33,WSDL version 420,2013-07-17 02:40:00,
2013-07-16 22:45:00,76.8,71.4,30.03,East,90,0.0,0.0,83,0.00,,,0.33,WSDL version 420,2013-07-17 02:45:00,
2013-07-16 22:55:00,76.8,71.3,30.03,North,360,0.0,0.0,83,0.00,,,0.33,WSDL version 420,2013-07-17 02:55:00,
2013-07-16 23:00:00,76.6,71.3,30.00,North,360,0.0,0.0,84,0.00,,,0.33,WSDL version 420,2013-07-17 03:00:00,
2013-07-16 23:05:00,76.6,71.5,30.00,North,360,0.0,0.0,84,0.00,,,0.33,WSDL version 420,2013-07-17 03:05:00,
2013-07-16 23:10:00,76.6,71.6,30.00,North,360,0.0,0.0,84,0.00,,,0.33,WSDL version 420,2013-07-17 03:10:00,
2013-07-16 23:15:00,76.7,71.6,30.00,East,90,0.0,0.0,84,0.00,,,0.33,WSDL version 420,2013-07-17 03:15:00,
2013-07-16 23:20:00,76.8,71.8,30.00,East,90,0.0,0.0,84,0.00,,,0.33,WSDL version 420,2013-07-17 03:20:00,
2013-07-16 23:25:00,76.7,71.7,30.00,East,90,0.0,0.0,84,0.00,,,0.33,WSDL version 420,2013-07-17 03:25:00,
2013-07-16 23:30:00,76.6,71.6,30.03,East,90,0.0,0.0,84,0.00,,,0.33,WSDL version 420,2013-07-17 03:30:00,
2013-07-16 23:35:00,76.5,71.5,30.03,East,90,0.0,0.0,84,0.00,,,0.33,WSDL version 420,2013-07-17 03:35:00,
2013-07-16 23:40:00,76.5,71.4,30.03,East,90,0.0,0.0,84,0.00,,,0.33,WSDL version 420,2013-07-17 03:40:00,
2013-07-16 23:45:00,76.5,71.4,30.03,East,90,0.0,0.0,84,0.00,,,0.33,WSDL version 420,2013-07-17 03:45:00,
2013-07-16 23:50:00,76.5,71.4,30.03,East,90,0.0,0.0,84,0.00,,,0.33,WSDL version 420,2013-07-17 03:50:00,
2013-07-16 23:55:00,76.5,71.4,30.03,East,90,0.0,0.0,84,0.00,,,0.33,WSDL version 420,2013-07-17 03:55:00,